Kansas City, MO

10:14 PM CST on February 27, 2017 (GMT -0600)
Kansas City Downtown

Weather History for KMKC - April, 2014

Change the Weather History Date:

Saturday, April 12, 2014

  Actual Average Record
Temperature  
Mean Temperature 72 °F -  
Max Temperature 84 °F 63 °F 84 °F (2014)
Min Temperature 60 °F 44 °F 32 °F (1997)
Cooling Degree Days 7    
Growing Degree Days 22 (Base 50)    
Moisture  
Dew Point 54 °F    
Average Humidity 53    
Maximum Humidity 75    
Minimum Humidity 38    
Precipitation  
Precipitation 0.00 in - - ()
Sea Level Pressure  
Sea Level Pressure 29.69 in    
Wind  
Wind Speed 11 mph (SSW)    
Max Wind Speed 23 mph    
Max Gust Speed 33 mph    
Visibility 10 miles    
Events Rain , Thunderstorm    
Averages and records for this station are not official NWS values.
T = Trace of Precipitation, MM = Missing Value Source: NWS Daily Summary

Daily Weather History Graph

Daily Weather History Graph

Search for Another Location

Airport or City:

Trip Planner

Search our weather history database for the weather conditions in past years. The results will help you decide how hot, cold, wet, or windy it might be!

Date:

Astronomy

Apr. 12, 2014 Rise Set
Actual Time 6:45 AM CDT 7:52 PM CDT
Civil Twilight 6:18 AM CDT 8:20 PM CDT
Nautical Twilight 5:45 AM CDT 8:53 PM CDT
Astronomical Twilight 5:11 AM CDT 9:27 PM CDT
Moon 5:33 PM CDT (4/12) 5:12 AM CDT (4/12)
Length of Visible Light 14h 01m
Length of Day
13h 06m
Waxing Gibbous, 93% of the Moon is Illuminated
Apr 12
Waxing Gibbous
Apr 15
Full
Apr 22
Last Quarter
Apr 29
New
May 6
First Quarter

Hourly Weather History & Observations

Time (CDT) Temp. Heat Index Dew Point Humidity Pressure Visibility Wind Dir Wind Speed Gust Speed Precip Events Conditions
12:54 AM 64.0 °F - 37.9 °F 38% 29.86 in 10.0 mi Calm Calm - N/A   Partly Cloudy
1:54 AM 63.0 °F - 39.9 °F 43% 29.86 in 10.0 mi South 9.2 mph - N/A   Partly Cloudy
2:54 AM 60.1 °F - 46.0 °F 60% 29.83 in 10.0 mi SSW 5.8 mph - N/A   Clear
3:54 AM 64.9 °F - 54.0 °F 68% 29.81 in 10.0 mi SSW 16.1 mph - N/A   Clear
4:54 AM 63.0 °F - 55.0 °F 75% 29.81 in 10.0 mi SSW 11.5 mph - N/A   Clear
5:54 AM 63.0 °F - 54.0 °F 72% 29.79 in 10.0 mi South 11.5 mph - N/A   Partly Cloudy
6:54 AM 63.0 °F - 54.0 °F 72% 29.78 in 10.0 mi South 11.5 mph - N/A   Scattered Clouds
7:54 AM 64.0 °F - 55.0 °F 73% 29.78 in 10.0 mi South 12.7 mph - N/A   Clear
8:54 AM 66.9 °F - 55.9 °F 68% 29.75 in 10.0 mi South 12.7 mph - N/A   Clear
9:54 AM 71.1 °F - 57.9 °F 63% 29.75 in 10.0 mi SSW 15.0 mph 28.8 mph 0.00 in   Clear
10:54 AM 75.0 °F - 59.0 °F 57% 29.74 in 10.0 mi SSW 17.3 mph 25.3 mph N/A   Clear
11:54 AM 77.0 °F - 59.0 °F 54% 29.71 in 10.0 mi SSW 23.0 mph 32.2 mph N/A   Clear
12:54 PM 80.1 °F 80.9 °F 60.1 °F 50% 29.67 in 10.0 mi South 18.4 mph 25.3 mph 0.00 in   Clear
1:54 PM 81.0 °F 81.6 °F 60.1 °F 49% 29.64 in 10.0 mi South 20.7 mph 29.9 mph 0.00 in Rain Light Rain
2:54 PM 82.0 °F 82.1 °F 59.0 °F 45% 29.60 in 10.0 mi South 15.0 mph 25.3 mph 0.00 in   Clear
3:54 PM 84.0 °F 83.5 °F 57.9 °F 41% 29.56 in 10.0 mi South 21.9 mph 27.6 mph 0.00 in   Clear
4:54 PM 82.0 °F 81.7 °F 57.0 °F 42% 29.55 in 10.0 mi South 20.7 mph 33.4 mph 0.00 in Rain Light Rain
5:54 PM 80.1 °F 80.4 °F 57.0 °F 45% 29.55 in 10.0 mi South 18.4 mph 32.2 mph 0.00 in   Clear
6:54 PM 79.0 °F - 57.0 °F 47% 29.54 in 10.0 mi South 10.4 mph 23.0 mph N/A   Clear
7:54 PM 79.0 °F - 55.9 °F 45% 29.55 in 10.0 mi South 16.1 mph 25.3 mph N/A   Clear
8:54 PM 78.1 °F - 55.9 °F 46% 29.54 in 10.0 mi South 20.7 mph 28.8 mph N/A   Clear
9:54 PM 77.0 °F - 55.0 °F 47% 29.59 in 10.0 mi SSW 15.0 mph 27.6 mph N/A   Clear
10:14 PM 77.0 °F - 55.0 °F 47% 29.64 in 10.0 mi SW 9.2 mph 20.7 mph N/A Thunderstorm Clear
10:29 PM 77.0 °F - 55.0 °F 47% 29.65 in 10.0 mi SSW 12.7 mph 23.0 mph N/A   Scattered Clouds
10:54 PM 75.9 °F - 54.0 °F 46% 29.63 in 10.0 mi SSW 18.4 mph 31.1 mph N/A   Overcast
11:40 PM 71.1 °F - 50.0 °F 47% 29.70 in 10.0 mi NNW 15.0 mph 20.7 mph N/A   Overcast
11:54 PM 70.0 °F - 50.0 °F 49% 29.68 in 10.0 mi WNW 5.8 mph - N/A   Overcast